SL-14 DEB

Satellite information

Favourite Embed

Satellite Type and Status

DEBRISIN ORBIT

Key statistics

Satellite SL-14 DEB at a glance.

Uptime

13998

Days in orbit

Revolutions

≈ 13.8

Per day

Orbit

LEO

Low Earth Orbit

Inclination

82.4

Latest

Satellite identification and parameters

Extended collection of information and parameters for SL-14 DEB.

Object identification

Identified? True

Debris? True

Object name: SL-14 DEB

International designator: 1987-068AA

Object number (NORAD): 25199

Object ID (CCSDS): 25199

Country: COMMONWEALTH OF INDEPENDENT STATES (CIS)

Current information (Y/N): Y

RCS size: SMALL

Orbital parameters

Period: 104.345 minutes

Inclination: 82.3639 deg

SMA: 7341.877 km

Apoapsis: 1031.725 km

Periapsis: 895.76 km

RAAN: 45.8445 deg

Eccentricy: 0.00925951

Argument of periapsis: 287.924 deg

Mean anomaly: 71.1838 deg

Mean motion: 13.80041259 rev/day

Mean motion (dot): 0.00001623 rev/day2

B* drag term: 0.0015008822 1/REarth

Two-line elements (TLE)

Creation date: Dec. 12, 2025, 10:14 a.m.

Reference frame: TEME

Reference center: EARTH

Epoch: Dec. 12, 2025, 3:40 a.m. UTC

TLE line 0: 0 SL-14 DEB

TLE line 1: 1 25199U 87068AA 25346.15318631 .00001623 00000-0 15009-2 0 9992

TLE line 2: 2 25199 82.3639 45.8445 0092595 287.9240 71.1838 13.80041259392837

Live tracking on map

Real-time ground track for satellite SL-14 DEB.

In-orbit conjunctions

A list of the most updated potential collisions computed for object SL-14 DEB.

Target Orbit TCA Probability of collision Miss distance Type
SSU 2 LEO 2025-11-10 12:41:06 0.0001997276 783.0 (m) PAYLOAD
CZ-6A DEB LEO 2025-10-10 02:05:28 0.0002465034 231.0 (m) DEBRIS

Associated space launch

Second generation soviet meteorological satellite

SL-14 DEB was lifted into orbit during the mission ‘Tsiklon-3 | Meteor-2 16’, on board a Tsiklon-3 space rocket.

The launch took place on Aug. 18, 1987, 2:27 a.m. from 32/1.

For more information about the launch, click the button.

Launch to space Tsiklon-3 | Meteor-2 16
Tsiklon-3 | Meteor-2 16

Agency: N/A

Status: Launch Successful

Launch date: Aug. 18, 1987, 2:27 a.m. UTC

Rocket: Tsiklon-3

Launch pad: 32/1

Location: Plesetsk Cosmodrome, Russian Federation

...

Latest news about this satellite

There are no fresh news available about this satellite. Check back as we update our databases every day.


Newsletter sign-up

Weekly statistics, charts and insights to help you stay on top of the space industry.